Olivia, MN

10:42 AM CDT on June 28, 2017 (GMT -0500)
Olivia Regional

Weather History for KOVL - January, 2013

Change the Weather History Date:

Wednesday, January 9, 2013

  Actual Average (KRWF) Record (KRWF)
Temperature  
Mean Temperature 30 °F -  
Max Temperature 35 °F 16 °F 55 °F (2012)
Min Temperature 26 °F 0 °F -32 °F (1977)
Degree Days  
Heating Degree Days 34    
Moisture  
Dew Point 25 °F    
Average Humidity 77    
Maximum Humidity 87    
Minimum Humidity 64    
Precipitation  
Precipitation 0.00 in - - ()
Sea Level Pressure  
Sea Level Pressure 30.17 in    
Wind  
Wind Speed 13 mph (WSW)    
Max Wind Speed 26 mph    
Max Gust Speed 31 mph    
Visibility 10 miles    
Events      
Averages and records for this station are not official NWS values.
T = Trace of Precipitation, MM = Missing Value Source: NWS Daily Summary

Daily Weather History Graph

Daily Weather History Graph

Search for Another Location

Airport or City:

Trip Planner

Search our weather history database for the weather conditions in past years. The results will help you decide how hot, cold, wet, or windy it might be!

Date:

Astronomy

Jan. 09, 2013 Rise Set
Actual Time 7:56 AM CST 4:58 PM CST
Civil Twilight 7:23 AM CST 5:31 PM CST
Nautical Twilight 6:46 AM CST 6:08 PM CST
Astronomical Twilight 6:11 AM CST 6:43 PM CST
Moon 5:36 AM CST (1/9) 3:00 PM CST (1/9)
Length of Visible Light 10h 08m
Length of Day
9h 02m
Waning Crescent, 6% of the Moon is Illuminated
Jan 9
Waning Crescent
Jan 11
New
Jan 18
First Quarter
Jan 26
Full
Feb 3
Last Quarter

Hourly Weather History & Observations

Time (CST) Temp. Windchill Dew Point Humidity Pressure Visibility Wind Dir Wind Speed Gust Speed Precip Events Conditions
12:11 AM 35.6 °F 27.1 °F 30.2 °F 81% 29.92 in 10.0 mi WNW 12.7 mph - N/A   Overcast
12:30 AM 33.8 °F 25.8 °F 30.2 °F 87% 29.93 in 10.0 mi West 10.4 mph - N/A   Mostly Cloudy
12:51 AM 33.8 °F 27.0 °F 28.4 °F 81% 29.93 in 10.0 mi WSW 8.1 mph - N/A   Scattered Clouds
1:11 AM 30.2 °F 21.9 °F 26.6 °F 86% 29.94 in 10.0 mi SW 9.2 mph - N/A   Clear
1:31 AM 32.0 °F 23.6 °F 26.6 °F 80% 29.94 in 10.0 mi SW 10.4 mph - N/A   Clear
1:51 AM 30.2 °F 20.8 °F 26.6 °F 86% 29.95 in 10.0 mi WSW 11.5 mph - N/A   Clear
2:10 AM 30.2 °F 19.8 °F 26.6 °F 86% 29.96 in 10.0 mi WSW 13.8 mph - N/A   Clear
2:31 AM 32.0 °F 21.6 °F 28.4 °F 87% 29.97 in 10.0 mi West 15.0 mph - N/A   Clear
2:51 AM 32.0 °F 20.8 °F 26.6 °F 80% 29.98 in 10.0 mi West 17.3 mph - N/A   Clear
3:11 AM 33.8 °F 21.6 °F 28.4 °F 81% 29.99 in 10.0 mi West 23.0 mph - N/A   Clear
3:31 AM 33.8 °F 21.9 °F 28.4 °F 81% 30.00 in 10.0 mi West 21.9 mph - N/A   Clear
3:50 AM 33.8 °F 21.9 °F 28.4 °F 81% 30.01 in 10.0 mi West 21.9 mph 26.5 mph N/A   Clear
4:11 AM 33.8 °F 21.3 °F 28.4 °F 81% 30.02 in 10.0 mi West 24.2 mph 31.1 mph N/A   Clear
4:31 AM 33.8 °F 20.8 °F 28.4 °F 81% 30.03 in 10.0 mi West 26.5 mph - N/A   Clear
4:50 AM 32.0 °F 18.9 °F 26.6 °F 80% 30.04 in 10.0 mi West 24.2 mph - N/A   Clear
5:11 AM 32.0 °F 19.2 °F 26.6 °F 80% 30.04 in 10.0 mi WNW 23.0 mph - N/A   Clear
5:30 AM 32.0 °F 19.8 °F 24.8 °F 75% 30.05 in 10.0 mi WNW 20.7 mph 27.6 mph N/A   Clear
5:51 AM 32.0 °F 19.8 °F 24.8 °F 75% 30.06 in 10.0 mi WNW 20.7 mph 27.6 mph N/A   Clear
6:11 AM 32.0 °F 20.1 °F 23.0 °F 69% 30.07 in 10.0 mi WNW 19.6 mph 24.2 mph N/A   Clear
6:31 AM 30.2 °F 18.1 °F 23.0 °F 75% 30.09 in 10.0 mi WNW 18.4 mph 24.2 mph N/A   Clear
7:11 AM 30.2 °F 18.5 °F 23.0 °F 75% 30.11 in 10.0 mi West 17.3 mph 23.0 mph N/A   Clear
7:31 AM 30.2 °F 19.3 °F 23.0 °F 75% 30.12 in 10.0 mi West 15.0 mph - N/A   Clear
7:51 AM 30.2 °F 19.3 °F 23.0 °F 75% 30.13 in 10.0 mi WNW 15.0 mph - N/A   Clear
8:11 AM 30.2 °F 18.9 °F 23.0 °F 75% 30.14 in 10.0 mi WNW 16.1 mph - N/A   Clear
8:31 AM 30.2 °F 20.8 °F 23.0 °F 75% 30.15 in 10.0 mi WNW 11.5 mph 20.7 mph N/A   Clear
8:51 AM 30.2 °F 20.8 °F 23.0 °F 75% 30.16 in 10.0 mi WNW 11.5 mph - N/A   Clear
9:10 AM 30.2 °F 20.8 °F 23.0 °F 75% 30.17 in 10.0 mi WNW 11.5 mph 17.3 mph N/A   Clear
9:31 AM 30.2 °F 21.3 °F 23.0 °F 75% 30.17 in 10.0 mi WNW 10.4 mph 16.1 mph N/A   Clear
9:51 AM 30.2 °F 21.9 °F 21.2 °F 69% 30.18 in 10.0 mi WNW 9.2 mph 18.4 mph N/A   Clear
10:10 AM 30.2 °F 20.8 °F 21.2 °F 69% 30.18 in 10.0 mi NW 11.5 mph 18.4 mph N/A   Clear
10:31 AM 30.2 °F 20.8 °F 21.2 °F 69% 30.20 in 10.0 mi WNW 11.5 mph - N/A   Clear
10:51 AM 30.2 °F 19.8 °F 21.2 °F 69% 30.22 in 10.0 mi West 13.8 mph - N/A   Clear
11:11 AM 30.2 °F 20.2 °F 21.2 °F 69% 30.24 in 10.0 mi West 12.7 mph - N/A   Clear
11:31 AM 32.0 °F 22.5 °F 21.2 °F 64% 30.26 in 10.0 mi West 12.7 mph - N/A   Clear
11:51 AM 32.0 °F 23.6 °F 23.0 °F 69% 30.27 in 10.0 mi West 10.4 mph - N/A   Clear
12:11 PM 32.0 °F 24.8 °F 23.0 °F 69% 30.28 in 10.0 mi West 8.1 mph - N/A   Clear
12:30 PM 32.0 °F 23.6 °F 23.0 °F 69% 30.29 in 10.0 mi WSW 10.4 mph - N/A   Clear
12:50 PM 32.0 °F 24.8 °F 24.8 °F 75% 30.29 in 10.0 mi WSW 8.1 mph - N/A   Clear
1:11 PM 32.0 °F 23.6 °F 23.0 °F 69% 30.28 in 10.0 mi West 10.4 mph - N/A   Clear
1:30 PM 32.0 °F 24.2 °F 23.0 °F 69% 30.29 in 10.0 mi West 9.2 mph - N/A   Clear
1:51 PM 32.0 °F 25.6 °F 23.0 °F 69% 30.29 in 10.0 mi West 6.9 mph - N/A   Clear
2:11 PM 32.0 °F 24.8 °F 26.6 °F 80% 30.31 in 10.0 mi SW 8.1 mph - N/A   Clear
2:31 PM 32.0 °F 24.8 °F 24.8 °F 75% 30.31 in 10.0 mi SW 8.1 mph - N/A   Clear
2:50 PM 32.0 °F 25.6 °F 24.8 °F 75% 30.31 in 10.0 mi SW 6.9 mph - N/A   Clear
3:11 PM 32.0 °F 26.4 °F 24.8 °F 75% 30.31 in 10.0 mi SW 5.8 mph - N/A   Clear
3:31 PM 30.2 °F 24.3 °F 23.0 °F 75% 30.32 in 10.0 mi SW 5.8 mph - N/A   Clear
3:51 PM 32.0 °F 27.5 °F 23.0 °F 69% 30.32 in 10.0 mi South 4.6 mph - N/A   Clear
4:11 PM 32.0 °F 28.7 °F 23.0 °F 69% 30.30 in 10.0 mi South 3.5 mph - N/A   Clear
4:31 PM 30.2 °F 24.3 °F 21.2 °F 69% 30.29 in 10.0 mi SE 5.8 mph - N/A   Clear
4:51 PM 30.2 °F 25.4 °F 23.0 °F 75% 30.28 in 10.0 mi SE 4.6 mph - N/A   Clear
5:11 PM 30.2 °F 24.3 °F 23.0 °F 75% 30.28 in 10.0 mi SE 5.8 mph - N/A   Clear
5:31 PM 28.4 °F 22.2 °F 21.2 °F 74% 30.28 in 10.0 mi SE 5.8 mph - N/A   Clear
5:50 PM 28.4 °F 22.2 °F 23.0 °F 80% 30.26 in 10.0 mi SE 5.8 mph - N/A   Clear
6:11 PM 26.6 °F 18.2 °F 21.2 °F 80% 30.26 in 10.0 mi SSE 8.1 mph - N/A   Clear
6:30 PM 26.6 °F 17.5 °F 21.2 °F 80% 30.27 in 10.0 mi SE 9.2 mph - N/A   Clear
6:50 PM 28.4 °F 19.1 °F 23.0 °F 80% 30.26 in 10.0 mi SE 10.4 mph - N/A   Clear
7:11 PM 26.6 °F 16.8 °F 23.0 °F 86% 30.27 in 10.0 mi SE 10.4 mph - N/A   Clear
7:31 PM 28.4 °F 19.1 °F 23.0 °F 80% 30.26 in 10.0 mi SE 10.4 mph - N/A   Clear
7:51 PM 28.4 °F 19.1 °F 23.0 °F 80% 30.26 in 10.0 mi SE 10.4 mph - N/A   Clear
8:11 PM 28.4 °F 18.5 °F 23.0 °F 80% 30.25 in 10.0 mi SE 11.5 mph - N/A   Clear
8:30 PM 28.4 °F 19.7 °F 23.0 °F 80% 30.24 in 10.0 mi SSE 9.2 mph - N/A   Clear
8:51 PM 30.2 °F 20.8 °F 26.6 °F 86% 30.24 in 10.0 mi SSE 11.5 mph - N/A   Clear
9:11 PM 30.2 °F 19.3 °F 26.6 °F 86% 30.23 in 10.0 mi SSE 15.0 mph - N/A   Clear
9:30 PM 30.2 °F 21.3 °F 26.6 °F 86% 30.22 in 10.0 mi SSE 10.4 mph - N/A   Clear
9:51 PM 30.2 °F 21.9 °F 26.6 °F 86% 30.21 in 10.0 mi SSE 9.2 mph - N/A   Clear
10:11 PM 30.2 °F 20.8 °F 26.6 °F 86% 30.20 in 10.0 mi SSE 11.5 mph - N/A   Clear
10:31 PM 30.2 °F 18.9 °F 26.6 °F 86% 30.21 in 10.0 mi SSE 16.1 mph - N/A   Clear
10:51 PM 30.2 °F 20.8 °F 26.6 °F 86% 30.21 in 10.0 mi South 11.5 mph - N/A   Clear
11:11 PM 30.2 °F 20.8 °F 26.6 °F 86% 30.20 in 10.0 mi SSE 11.5 mph - N/A   Clear
11:31 PM 30.2 °F 21.3 °F 26.6 °F 86% 30.19 in 10.0 mi SSE 10.4 mph - N/A   Clear